{"data":{"norad_id":60486,"intl_designator":"2024-149U","name":"FLOCK 4BE-36","alt_names":[],"object_type":"PAYLOAD","status":"ACTIVE","operator":null,"country":"US","launch_date":"2024-08-16","launch_site_code":"AFWTR","launch_vehicle":null,"mission":null,"orbit_class":"UNKNOWN","rcs_meters":null,"size_class":null,"mass_kg":null,"dimensions":null,"purposes":["earth_obs"],"wikipedia_slug":null,"has_3d_model":false,"image_url":null,"decayed_at":null,"tle_current":{"epoch":"2026-05-25T03:36:13.135392Z","epoch_age_seconds":61399,"freshness":"FRESH","line1":"1 60486U 24149U   26145.15015203  .00016614  00000+0  39265-3 0  9994","line2":"2 60486  97.3739 229.3164 0003025  18.8397 341.2962 15.41904264 98805","mean_motion":15.41904264,"eccentricity":0.0003025,"inclination_deg":97.3739,"raan_deg":229.3164,"arg_perigee_deg":18.8397,"mean_anomaly_deg":341.2962,"bstar":0.00039265,"rev_number":9880,"period_min":93.391012245103,"perigee_km":438.42686074795,"apogee_km":442.55212977758,"semimajor_km":6818.6264952628,"source":"CELESTRAK","updated_at":"2026-05-25T13:38:13.302634Z"}}}